Home   Weather   Meschede   Past weeks

Flag for Germany Past Weather in Meschede, North Rhine-Westphalia, Germany — Yesterday and Last 2 Weeks

Now
27 °F

Clear.


Feels Like: 21 °F
Forecast: 22 / 40 °F
Wind: 5 mph from South

Location: Paderborn / Lippstadt

Current Time: Dec 6, 2016 at 10:51:21 pm

Latest Report: Dec 6, 2016 at 9:50 pm


Visibility: 10 mi

Pressure: 30.48 "Hg

Humidity: 86%

Dew Point: 23 °F

Location of MeschedeLocation

Past Weather in Meschede — Graph

°F

Meschede Temperature Yesterday

Maximum temperature yesterday: 46 °F (at 12:20 pm)
Minimum temperature yesterday: 23 °F (at 4:50 am)
Average temperature yesterday: 30 °F

High & Low Weather Summary for the Past Weeks

 TemperatureHumidityPressure
High61 °F (Nov 21, 9:20 pm)100% (Nov 27, 9:50 am)30.57 "Hg (Nov 27, 9:50 am)
Low18 °F (Nov 29, 6:50 am)28% (Nov 30, 11:50 am)29.59 "Hg (Nov 21, 9:20 pm)
Average36 °F78%30.22 "Hg
* Reported Nov 21 9:20 pm — Dec 6 9:50 pm, Meschede, Weather by CustomWeather, © 2016

Note: Actual official high and low records may vary slightly from our data, if they occured in-between our weather recording intervals... More about our weather records

Advertising

Meschede Weather History for the Previous 24 Hours

Scroll right to see more
 ConditionsComfort  
Time TempWeatherWind HumidityBarometerVisibility
9:50 pm
Tue, Dec 6
27 °FClear.5 mph86%30.48 "Hg10 mi
9:20 pm30 °FClear.10 mph86%30.45 "Hg10 mi
8:50 pm30 °FClear.10 mph86%30.45 "Hg10 mi
8:20 pm27 °FPassing clouds.3 mph93%30.45 "HgN/A
7:50 pm28 °FClear.10 mph86%30.45 "Hg10 mi
6:50 pm28 °FPassing clouds.6 mph86%30.45 "HgN/A
6:20 pm30 °FPassing clouds.5 mph86%30.45 "HgN/A
5:50 pm30 °FClear.8 mph86%30.45 "Hg10 mi
5:20 pm30 °FClear.5 mph80%30.45 "Hg10 mi
4:50 pm30 °FClear.5 mph80%30.45 "Hg10 mi
4:20 pm32 °FClear.9 mph80%30.45 "Hg10 mi
3:50 pm34 °FSunny.7 mph81%30.42 "Hg10 mi
3:20 pm36 °FSunny.7 mph75%30.42 "Hg10 mi
2:50 pm37 °FSunny.7 mph75%30.42 "Hg10 mi
2:20 pm39 °FPassing clouds.5 mph70%30.42 "HgN/A
1:50 pm41 °FSunny.2 mph70%30.42 "Hg10 mi
1:20 pm39 °FPassing clouds.3 mph70%30.42 "HgN/A
12:50 pm39 °FSunny.2 mph70%30.42 "Hg10 mi
12:20 pm36 °FSunny.2 mph75%30.42 "Hg10 mi
11:50 am34 °FSunny.3 mph81%30.42 "Hg10 mi
11:20 am32 °FSunny.3 mph80%30.42 "Hg10 mi
10:50 am28 °FSunny.6 mph86%30.42 "Hg10 mi
10:20 am27 °FSunny.6 mph86%30.42 "Hg10 mi
9:50 am25 °FSunny.9 mph86%30.42 "Hg10 mi
9:20 am23 °FPassing clouds.6 mph86%30.42 "HgN/A
8:50 am21 °FSunny.3 mph93%30.39 "Hg10 mi
8:20 am23 °FPassing clouds.5 mph86%30.39 "HgN/A
7:50 am21 °FClear.9 mph86%30.39 "Hg10 mi
7:20 am21 °FClear.8 mph93%30.39 "Hg10 mi
6:50 am21 °FClear.8 mph93%30.39 "Hg10 mi
6:20 am21 °FClear.6 mph86%30.36 "Hg10 mi
5:50 am21 °FClear.2 mph86%30.36 "Hg10 mi
5:20 am23 °FPassing clouds.6 mph86%30.36 "HgN/A
4:50 am23 °FClear.3 mph86%30.36 "Hg10 mi
4:20 am23 °FClear.2 mph93%30.36 "Hg10 mi
3:50 am21 °FClear.7 mph93%30.36 "Hg10 mi
3:20 am25 °FPassing clouds.3 mph86%30.36 "HgN/A
2:50 am23 °FPassing clouds.5 mph93%30.36 "HgN/A
2:20 am25 °FPassing clouds.6 mph86%30.33 "HgN/A
1:50 am25 °FClear.2 mph93%30.33 "Hg10 mi
1:20 am25 °FClear.5 mph86%30.33 "Hg10 mi
12:50 am23 °FClear.7 mph86%30.33 "Hg10 mi
11:50 pm
Mon, Dec 5
25 °FPassing clouds.5 mph86%30.33 "HgN/A
11:20 pm25 °FClear.7 mph86%30.33 "Hg10 mi
10:50 pm27 °FClear.6 mph86%30.33 "Hg10 mi
10:20 pm27 °FClear.5 mph80%30.33 "Hg10 mi
Weather by CustomWeather, © 2016

See weather overviewHow to use our weather pages